Time,TemperatureF,DewpointF,PressureIn,WindDirection,WindDirectionDegrees,WindSpeedMPH,WindSpeedGustMPH,Humidity,HourlyPrecipIn,Conditions,Clouds,dailyrainin,SoftwareType,DateUTC
2013-05-03 00:01:00,60.9,34.5,30.21,SE,136,1.0,5.0,37,0.00,,,0.00,WeatherCatV1.15B25,2013-05-03 04:01:00,
2013-05-03 00:02:00,60.8,35.0,30.21,SE,141,1.0,4.0,38,0.00,,,0.00,WeatherCatV1.15B25,2013-05-03 04:02:00,
2013-05-03 00:05:00,60.4,35.3,30.21,SE,146,2.0,3.0,39,0.00,,,0.00,WeatherCatV1.15B25,2013-05-03 04:05:00,
2013-05-03 00:10:00,59.7,34.7,30.21,SSE,157,3.0,3.0,39,0.00,,,0.00,WeatherCatV1.15B25,2013-05-03 04:10:00,
2013-05-03 00:15:00,59.5,35.2,30.21,SSE,150,2.0,3.0,40,0.00,,,0.00,WeatherCatV1.15B25,2013-05-03 04:15:00,
2013-05-03 00:16:00,59.4,35.1,30.21,SSE,149,5.0,5.0,40,0.00,,,0.00,WeatherCatV1.15B25,2013-05-03 04:16:00,
2013-05-03 00:20:00,59.4,34.4,30.21,SE,127,5.0,5.0,39,0.00,,,0.00,WeatherCatV1.15B25,2013-05-03 04:20:00,
2013-05-03 00:25:00,59.3,35.0,30.21,SE,142,2.0,3.0,40,0.00,,,0.00,WeatherCatV1.15B25,2013-05-03 04:25:00,
2013-05-03 00:30:00,59.2,34.3,30.21,SE,143,2.0,5.0,39,0.00,,,0.00,WeatherCatV1.15B25,2013-05-03 04:30:00,
2013-05-03 00:35:00,58.9,35.2,30.21,ESE,114,1.0,2.0,41,0.00,,,0.00,WeatherCatV1.15B25,2013-05-03 04:35:00,
2013-05-03 00:40:00,57.9,34.9,30.21,ESE,112,1.0,3.0,42,0.00,,,0.00,WeatherCatV1.15B25,2013-05-03 04:40:00,
2013-05-03 00:45:00,57.9,34.3,30.21,SE,133,2.0,2.0,41,0.00,,,0.00,WeatherCatV1.15B25,2013-05-03 04:45:00,
2013-05-03 00:50:00,57.6,35.3,30.21,SSE,152,1.0,1.0,43,0.00,,,0.00,WeatherCatV1.15B25,2013-05-03 04:50:00,
2013-05-03 00:55:00,57.3,35.6,30.21,East,101,1.0,5.0,44,0.00,,,0.00,WeatherCatV1.15B25,2013-05-03 04:55:00,
2013-05-03 01:00:00,56.7,35.6,30.21,SE,125,0.0,4.0,45,0.00,,,0.00,WeatherCatV1.15B25,2013-05-03 05:00:00,
2013-05-03 01:05:00,56.3,35.2,30.21,SE,143,1.0,2.0,45,0.00,,,0.00,WeatherCatV1.15B25,2013-05-03 05:05:00,
2013-05-03 01:10:00,56.4,35.3,30.21,ESE,105,1.0,2.0,45,0.00,,,0.00,WeatherCatV1.15B25,2013-05-03 05:10:00,
2013-05-03 01:15:00,56.5,36.0,30.21,SE,138,0.0,4.0,46,0.00,,,0.00,WeatherCatV1.15B25,2013-05-03 05:15:00,
2013-05-03 01:20:00,56.5,36.0,30.21,East,89,0.0,1.0,46,0.00,,,0.00,WeatherCatV1.15B25,2013-05-03 05:20:00,
2013-05-03 01:25:00,55.9,35.4,30.21,East,84,0.0,2.0,46,0.00,,,0.00,WeatherCatV1.15B25,2013-05-03 05:25:00,
2013-05-03 01:30:00,55.5,36.1,30.21,ESE,108,0.0,2.0,48,0.00,,,0.00,WeatherCatV1.15B25,2013-05-03 05:30:00,
2013-05-03 01:35:00,55.1,36.3,30.21,ESE,114,0.0,1.0,49,0.00,,,0.00,WeatherCatV1.15B25,2013-05-03 05:35:00,
2013-05-03 01:40:00,54.8,36.5,30.21,ESE,119,1.0,2.0,50,0.00,,,0.00,WeatherCatV1.15B25,2013-05-03 05:40:00,
2013-05-03 01:45:00,54.9,36.1,30.21,SSE,148,1.0,2.0,49,0.00,,,0.00,WeatherCatV1.15B25,2013-05-03 05:45:00,
2013-05-03 01:50:00,54.9,36.6,30.21,SE,125,1.0,2.0,50,0.00,,,0.00,WeatherCatV1.15B25,2013-05-03 05:50:00,
2013-05-03 01:55:00,54.9,36.1,30.21,SE,125,2.0,2.0,49,0.00,,,0.00,WeatherCatV1.15B25,2013-05-03 05:55:00,
2013-05-03 02:00:00,54.9,36.1,30.21,ESE,120,1.0,2.0,49,0.00,,,0.00,WeatherCatV1.15B25,2013-05-03 06:00:00,
2013-05-03 02:05:00,54.3,36.1,30.21,ESE,117,1.0,1.0,50,0.00,,,0.00,WeatherCatV1.15B25,2013-05-03 06:05:00,
2013-05-03 02:10:00,53.8,36.6,30.21,ESE,119,0.0,1.0,52,0.00,,,0.00,WeatherCatV1.15B25,2013-05-03 06:10:00,
2013-05-03 02:15:00,53.1,36.9,30.20,SE,134,0.0,1.0,54,0.00,,,0.00,WeatherCatV1.15B25,2013-05-03 06:15:00,
2013-05-03 02:20:00,52.2,37.0,30.21,SSE,151,0.0,0.0,56,0.00,,,0.00,WeatherCatV1.15B25,2013-05-03 06:20:00,
2013-05-03 02:25:00,51.6,36.9,30.21,SSE,159,0.0,0.0,57,0.00,,,0.00,WeatherCatV1.15B25,2013-05-03 06:25:00,
2013-05-03 02:30:00,50.7,36.9,30.21,SSE,148,0.0,1.0,59,0.00,,,0.00,WeatherCatV1.15B25,2013-05-03 06:30:00,
2013-05-03 02:35:00,50.4,36.6,30.21,SE,133,0.0,1.0,59,0.00,,,0.00,WeatherCatV1.15B25,2013-05-03 06:35:00,
2013-05-03 02:40:00,50.1,36.8,30.21,South,172,0.0,0.0,60,0.00,,,0.00,WeatherCatV1.15B25,2013-05-03 06:40:00,
2013-05-03 02:45:00,49.6,36.7,30.20,SSE,165,0.0,0.0,61,0.00,,,0.00,WeatherCatV1.15B25,2013-05-03 06:45:00,
2013-05-03 02:50:00,49.5,36.6,30.20,SE,133,0.0,0.0,61,0.00,,,0.00,WeatherCatV1.15B25,2013-05-03 06:50:00,
2013-05-03 02:55:00,49.2,37.1,30.20,SE,134,0.0,0.0,63,0.00,,,0.00,WeatherCatV1.15B25,2013-05-03 06:55:00,
2013-05-03 03:00:00,48.5,37.3,30.20,SE,134,0.0,0.0,65,0.00,,,0.00,WeatherCatV1.15B25,2013-05-03 07:00:00,
2013-05-03 03:05:00,48.1,37.7,30.20,SE,134,1.0,1.0,67,0.00,,,0.00,WeatherCatV1.15B25,2013-05-03 07:05:00,
2013-05-03 03:10:00,48.0,37.6,30.20,ESE,114,0.0,1.0,67,0.00,,,0.00,WeatherCatV1.15B25,2013-05-03 07:10:00,
2013-05-03 03:15:00,48.8,38.0,30.20,ESE,122,0.0,1.0,66,0.00,,,0.00,WeatherCatV1.15B25,2013-05-03 07:15:00,
2013-05-03 03:20:00,49.3,38.0,30.20,ESE,113,0.0,1.0,65,0.00,,,0.00,WeatherCatV1.15B25,2013-05-03 07:20:00,
2013-05-03 03:25:00,49.0,38.1,30.20,ESE,121,0.0,1.0,66,0.00,,,0.00,WeatherCatV1.15B25,2013-05-03 07:25:00,
2013-05-03 03:30:00,48.6,38.1,30.20,ESE,121,0.0,0.0,67,0.00,,,0.00,WeatherCatV1.15B25,2013-05-03 07:30:00,
2013-05-03 03:35:00,48.1,37.7,30.20,ESE,120,0.0,0.0,67,0.00,,,0.00,WeatherCatV1.15B25,2013-05-03 07:35:00,
2013-05-03 03:40:00,47.5,37.5,30.20,ESE,120,0.0,0.0,68,0.00,,,0.00,WeatherCatV1.15B25,2013-05-03 07:40:00,
2013-05-03 03:45:00,46.9,37.6,30.20,ESE,120,0.0,0.0,70,0.00,,,0.00,WeatherCatV1.15B25,2013-05-03 07:45:00,
2013-05-03 03:50:00,46.7,37.8,30.20,ESE,120,0.0,0.0,71,0.00,,,0.00,WeatherCatV1.15B25,2013-05-03 07:50:00,
2013-05-03 03:55:00,46.0,37.5,30.20,ESE,120,0.0,0.0,72,0.00,,,0.00,WeatherCatV1.15B25,2013-05-03 07:55:00,
2013-05-03 04:00:00,45.9,38.1,30.20,ESE,120,0.0,0.0,74,0.00,,,0.00,WeatherCatV1.15B25,2013-05-03 08:00:00,
2013-05-03 04:05:00,45.9,37.7,30.20,ESE,120,0.0,0.0,73,0.00,,,0.00,WeatherCatV1.15B25,2013-05-03 08:05:00,
2013-05-03 04:10:00,45.7,38.2,30.20,SW,214,0.0,0.0,75,0.00,,,0.00,WeatherCatV1.15B25,2013-05-03 08:10:00,
2013-05-03 04:15:00,46.0,38.5,30.20,SSW,211,0.0,0.0,75,0.00,,,0.00,WeatherCatV1.15B25,2013-05-03 08:15:00,
2013-05-03 04:20:00,46.1,38.3,30.20,SSW,211,0.0,0.0,74,0.00,,,0.00,WeatherCatV1.15B25,2013-05-03 08:20:00,
2013-05-03 04:25:00,46.3,38.5,30.20,SSE,163,0.0,0.0,74,0.00,,,0.00,WeatherCatV1.15B25,2013-05-03 08:25:00,
2013-05-03 04:30:00,46.1,38.3,30.20,SSE,163,0.0,0.0,74,0.00,,,0.00,WeatherCatV1.15B25,2013-05-03 08:30:00,
2013-05-03 04:35:00,45.8,38.3,30.20,SSE,164,0.0,0.0,75,0.00,,,0.00,WeatherCatV1.15B25,2013-05-03 08:35:00,
2013-05-03 04:40:00,45.8,38.3,30.20,SE,131,0.0,0.0,75,0.00,,,0.00,WeatherCatV1.15B25,2013-05-03 08:40:00,
2013-05-03 04:45:00,45.4,38.6,30.20,SSW,201,0.0,0.0,77,0.00,,,0.00,WeatherCatV1.15B25,2013-05-03 08:45:00,
2013-05-03 04:50:00,45.1,38.3,30.20,SSW,201,0.0,0.0,77,0.00,,,0.00,WeatherCatV1.15B25,2013-05-03 08:50:00,
2013-05-03 04:55:00,44.7,38.3,30.20,SSW,201,0.0,0.0,78,0.00,,,0.00,WeatherCatV1.15B25,2013-05-03 08:55:00,
2013-05-03 05:00:00,44.5,38.4,30.20,SSW,201,0.0,0.0,79,0.00,,,0.00,WeatherCatV1.15B25,2013-05-03 09:00:00,
2013-05-03 05:05:00,44.7,38.6,30.20,SSW,203,0.0,0.0,79,0.00,,,0.00,WeatherCatV1.15B25,2013-05-03 09:05:00,
2013-05-03 05:10:00,45.2,38.8,30.20,SSW,194,0.0,0.0,78,0.00,,,0.00,WeatherCatV1.15B25,2013-05-03 09:10:00,
2013-05-03 05:15:00,45.4,38.6,30.20,SSW,194,0.0,0.0,77,0.00,,,0.00,WeatherCatV1.15B25,2013-05-03 09:15:00,
2013-05-03 05:20:00,45.3,38.9,30.20,SSW,194,0.0,0.0,78,0.00,,,0.00,WeatherCatV1.15B25,2013-05-03 09:20:00,
2013-05-03 05:25:00,45.3,38.9,30.20,SSW,194,0.0,0.0,78,0.00,,,0.00,WeatherCatV1.15B25,2013-05-03 09:25:00,
2013-05-03 05:30:00,45.3,38.9,30.21,SSW,193,0.0,0.0,78,0.00,,,0.00,WeatherCatV1.15B25,2013-05-03 09:30:00,
2013-05-03 05:35:00,45.7,39.2,30.21,SSE,152,1.0,2.0,78,0.00,,,0.00,WeatherCatV1.15B25,2013-05-03 09:35:00,
2013-05-03 05:40:00,46.5,39.3,30.21,SE,139,1.0,1.0,76,0.00,,,0.00,WeatherCatV1.15B25,2013-05-03 09:40:00,
2013-05-03 05:45:00,46.9,39.7,30.21,SE,126,1.0,1.0,76,0.00,,,0.00,WeatherCatV1.15B25,2013-05-03 09:45:00,
2013-05-03 05:50:00,47.3,39.8,30.21,SE,132,2.0,3.0,75,0.00,,,0.00,WeatherCatV1.15B25,2013-05-03 09:50:00,
2013-05-03 05:55:00,47.7,40.2,30.21,SE,125,2.0,3.0,75,0.00,,,0.00,WeatherCatV1.15B25,2013-05-03 09:55:00,
2013-05-03 06:00:00,47.9,40.0,30.21,ESE,118,2.0,3.0,74,0.00,,,0.00,WeatherCatV1.15B25,2013-05-03 10:00:00,
2013-05-03 06:05:00,47.9,40.0,30.22,SE,130,2.0,2.0,74,0.00,,,0.00,WeatherCatV1.15B25,2013-05-03 10:05:00,
2013-05-03 06:10:00,47.8,40.3,30.22,SE,129,0.0,1.0,75,0.00,,,0.00,WeatherCatV1.15B25,2013-05-03 10:10:00,
2013-05-03 06:15:00,47.7,40.2,30.22,SE,124,1.0,1.0,75,0.00,,,0.00,WeatherCatV1.15B25,2013-05-03 10:15:00,
2013-05-03 06:20:00,47.8,40.3,30.23,SE,128,0.0,1.0,75,0.00,,,0.00,WeatherCatV1.15B25,2013-05-03 10:20:00,
2013-05-03 06:25:00,47.9,40.4,30.23,ESE,115,1.0,2.0,75,0.00,,,0.00,WeatherCatV1.15B25,2013-05-03 10:25:00,
2013-05-03 06:30:00,48.0,40.1,30.23,SE,133,2.0,2.0,74,0.00,,,0.00,WeatherCatV1.15B25,2013-05-03 10:30:00,
2013-05-03 06:35:00,48.3,40.4,30.23,SE,139,2.0,4.0,74,0.00,,,0.00,WeatherCatV1.15B25,2013-05-03 10:35:00,
2013-05-03 06:40:00,48.8,40.5,30.23,ESE,122,2.0,3.0,73,0.00,,,0.00,WeatherCatV1.15B25,2013-05-03 10:40:00,
2013-05-03 06:45:00,49.1,40.5,30.23,SE,145,1.0,2.0,72,0.00,,,0.00,WeatherCatV1.15B25,2013-05-03 10:45:00,
2013-05-03 06:50:00,49.2,40.6,30.23,ESE,121,1.0,2.0,72,0.00,,,0.00,WeatherCatV1.15B25,2013-05-03 10:50:00,
2013-05-03 06:55:00,49.4,40.8,30.23,SE,129,2.0,3.0,72,0.00,,,0.00,WeatherCatV1.15B25,2013-05-03 10:55:00,
2013-05-03 07:00:00,49.7,41.0,30.23,SE,125,1.0,3.0,72,0.00,,,0.00,WeatherCatV1.15B25,2013-05-03 11:00:00,
2013-05-03 07:05:00,50.4,41.7,30.23,SE,130,2.0,3.0,72,0.00,,,0.00,WeatherCatV1.15B25,2013-05-03 11:05:00,
2013-05-03 07:10:00,51.1,42.0,30.23,SE,141,1.0,2.0,71,0.00,,,0.00,WeatherCatV1.15B25,2013-05-03 11:10:00,
2013-05-03 07:15:00,51.4,41.9,30.23,SE,126,1.0,3.0,70,0.00,,,0.00,WeatherCatV1.15B25,2013-05-03 11:15:00,
2013-05-03 07:20:00,52.0,42.5,30.23,SSE,153,4.0,4.0,70,0.00,,,0.00,WeatherCatV1.15B25,2013-05-03 11:20:00,
2013-05-03 07:25:00,52.6,42.3,30.23,SE,141,2.0,4.0,68,0.00,,,0.00,WeatherCatV1.15B25,2013-05-03 11:25:00,
2013-05-03 07:30:00,53.4,42.3,30.23,SSE,148,3.0,6.0,66,0.00,,,0.00,WeatherCatV1.15B25,2013-05-03 11:30:00,
2013-05-03 07:35:00,53.9,42.8,30.23,SE,133,2.0,4.0,66,0.00,,,0.00,WeatherCatV1.15B25,2013-05-03 11:35:00,
2013-05-03 07:40:00,54.3,42.8,30.23,SE,134,3.0,5.0,65,0.00,,,0.00,WeatherCatV1.15B25,2013-05-03 11:40:00,
2013-05-03 07:45:00,55.0,42.6,30.23,SSE,152,5.0,5.0,63,0.00,,,0.00,WeatherCatV1.15B25,2013-05-03 11:45:00,
2013-05-03 07:50:00,55.5,43.1,30.23,SE,133,2.0,4.0,63,0.00,,,0.00,WeatherCatV1.15B25,2013-05-03 11:50:00,
2013-05-03 07:55:00,55.9,42.6,30.23,SE,129,3.0,5.0,61,0.00,,,0.00,WeatherCatV1.15B25,2013-05-03 11:55:00,
2013-05-03 08:00:00,56.5,43.2,30.23,SSE,149,5.0,7.0,61,0.00,,,0.00,WeatherCatV1.15B25,2013-05-03 12:00:00,
2013-05-03 08:05:00,57.1,43.3,30.23,SE,141,4.0,5.0,60,0.00,,,0.00,WeatherCatV1.15B25,2013-05-03 12:05:00,
2013-05-03 08:10:00,57.6,43.4,30.24,SE,145,5.0,8.0,59,0.00,,,0.00,WeatherCatV1.15B25,2013-05-03 12:10:00,
2013-05-03 08:15:00,58.1,42.9,30.23,ESE,116,4.0,9.0,57,0.00,,,0.00,WeatherCatV1.15B25,2013-05-03 12:15:00,
2013-05-03 08:20:00,58.5,43.8,30.24,SSE,153,8.0,9.0,58,0.00,,,0.00,WeatherCatV1.15B25,2013-05-03 12:20:00,
2013-05-03 08:25:00,58.8,43.1,30.24,SE,133,3.0,9.0,56,0.00,,,0.00,WeatherCatV1.15B25,2013-05-03 12:25:00,
2013-05-03 08:30:00,59.2,43.0,30.24,SSE,156,6.0,8.0,55,0.00,,,0.00,WeatherCatV1.15B25,2013-05-03 12:30:00,
2013-05-03 08:35:00,59.7,43.5,30.24,SE,145,11.0,11.0,55,0.00,,,0.00,WeatherCatV1.15B25,2013-05-03 12:35:00,
2013-05-03 08:40:00,60.1,43.9,30.23,SSE,153,5.0,7.0,55,0.00,,,0.00,WeatherCatV1.15B25,2013-05-03 12:40:00,
2013-05-03 08:45:00,60.8,43.6,30.24,SSE,162,6.0,7.0,53,0.00,,,0.00,WeatherCatV1.15B25,2013-05-03 12:45:00,
2013-05-03 08:50:00,61.3,43.0,30.23,South,172,7.0,8.0,51,0.00,,,0.00,WeatherCatV1.15B25,2013-05-03 12:50:00,
2013-05-03 08:55:00,61.4,43.1,30.24,SE,134,4.0,11.0,51,0.00,,,0.00,WeatherCatV1.15B25,2013-05-03 12:55:00,
2013-05-03 09:00:00,61.6,42.2,30.24,SE,139,7.0,9.0,49,0.00,,,0.00,WeatherCatV1.15B25,2013-05-03 13:00:00,
2013-05-03 09:05:00,61.8,43.0,30.23,SSE,158,4.0,6.0,50,0.00,,,0.00,WeatherCatV1.15B25,2013-05-03 13:05:00,
2013-05-03 09:10:00,62.0,43.1,30.23,SSE,162,3.0,6.0,50,0.00,,,0.00,WeatherCatV1.15B25,2013-05-03 13:10:00,
2013-05-03 09:15:00,62.4,43.0,30.23,SE,127,4.0,8.0,49,0.00,,,0.00,WeatherCatV1.15B25,2013-05-03 13:15:00,
2013-05-03 09:20:00,62.9,42.9,30.23,SSE,153,5.0,7.0,48,0.00,,,0.00,WeatherCatV1.15B25,2013-05-03 13:20:00,
2013-05-03 09:25:00,63.4,40.5,30.23,SSE,155,7.0,16.0,43,0.00,,,0.00,WeatherCatV1.15B25,2013-05-03 13:25:00,
2013-05-03 09:30:00,63.5,38.1,30.23,SSE,162,8.0,15.0,39,0.00,,,0.00,WeatherCatV1.15B25,2013-05-03 13:30:00,
2013-05-03 09:35:00,63.4,38.7,30.23,SSE,160,11.0,14.0,40,0.00,,,0.00,WeatherCatV1.15B25,2013-05-03 13:35:00,
2013-05-03 09:40:00,63.4,38.0,30.23,South,184,12.0,14.0,39,0.00,,,0.00,WeatherCatV1.15B25,2013-05-03 13:40:00,
2013-05-03 09:45:00,63.8,38.4,30.23,South,169,11.0,12.0,39,0.00,,,0.00,WeatherCatV1.15B25,2013-05-03 13:45:00,
2013-05-03 09:50:00,64.2,38.7,30.22,SSE,161,12.0,18.0,39,0.00,,,0.00,WeatherCatV1.15B25,2013-05-03 13:50:00,
2013-05-03 09:55:00,64.4,38.9,30.22,SSE,160,14.0,14.0,39,0.00,,,0.00,WeatherCatV1.15B25,2013-05-03 13:55:00,
2013-05-03 10:00:00,64.8,37.9,30.22,SE,133,6.0,10.0,37,0.00,,,0.00,WeatherCatV1.15B25,2013-05-03 14:00:00,
2013-05-03 10:05:00,64.9,40.6,30.23,SE,134,10.0,10.0,41,0.00,,,0.00,WeatherCatV1.15B25,2013-05-03 14:05:00,
2013-05-03 10:10:00,65.2,39.6,30.22,SSE,159,8.0,12.0,39,0.00,,,0.00,WeatherCatV1.15B25,2013-05-03 14:10:00,
2013-05-03 10:15:00,65.5,40.5,30.23,SSW,208,5.0,8.0,40,0.00,,,0.00,WeatherCatV1.15B25,2013-05-03 14:15:00,
2013-05-03 10:20:00,66.0,42.2,30.23,South,172,5.0,8.0,42,0.00,,,0.00,WeatherCatV1.15B25,2013-05-03 14:20:00,
2013-05-03 10:25:00,66.0,38.3,30.23,SSW,205,7.0,8.0,36,0.00,,,0.00,WeatherCatV1.15B25,2013-05-03 14:25:00,
2013-05-03 10:30:00,66.0,39.0,30.23,SE,126,8.0,9.0,37,0.00,,,0.00,WeatherCatV1.15B25,2013-05-03 14:30:00,
2013-05-03 10:35:00,66.0,38.3,30.22,South,170,11.0,14.0,36,0.00,,,0.00,WeatherCatV1.15B25,2013-05-03 14:35:00,
2013-05-03 10:40:00,66.0,38.3,30.23,SSE,158,14.0,14.0,36,0.00,,,0.00,WeatherCatV1.15B25,2013-05-03 14:40:00,
2013-05-03 10:45:00,66.0,39.0,30.22,SSE,152,6.0,15.0,37,0.00,,,0.00,WeatherCatV1.15B25,2013-05-03 14:45:00,
2013-05-03 10:50:00,66.1,39.1,30.22,SSE,148,13.0,14.0,37,0.00,,,0.00,WeatherCatV1.15B25,2013-05-03 14:50:00,
2013-05-03 10:55:00,66.3,39.2,30.22,WSW,252,10.0,12.0,37,0.00,,,0.00,WeatherCatV1.15B25,2013-05-03 14:55:00,
2013-05-03 11:00:00,66.6,39.5,30.22,SSE,160,9.0,12.0,37,0.00,,,0.00,WeatherCatV1.15B25,2013-05-03 15:00:00,
2013-05-03 11:05:00,67.1,38.5,30.22,South,170,7.0,13.0,35,0.00,,,0.00,WeatherCatV1.15B25,2013-05-03 15:05:00,
2013-05-03 11:10:00,67.6,39.7,30.22,SE,127,7.0,13.0,36,0.00,,,0.00,WeatherCatV1.15B25,2013-05-03 15:10:00,
2013-05-03 11:15:00,67.7,37.6,30.22,SSE,154,9.0,12.0,33,0.00,,,0.00,WeatherCatV1.15B25,2013-05-03 15:15:00,
2013-05-03 11:20:00,67.8,39.1,30.22,SE,145,9.0,10.0,35,0.00,,,0.00,WeatherCatV1.15B25,2013-05-03 15:20:00,
2013-05-03 11:25:00,68.1,40.1,30.22,SSE,155,8.0,13.0,36,0.00,,,0.00,WeatherCatV1.15B25,2013-05-03 15:25:00,
2013-05-03 11:30:00,68.3,38.8,30.22,SSE,159,8.0,15.0,34,0.00,,,0.00,WeatherCatV1.15B25,2013-05-03 15:30:00,
2013-05-03 11:35:00,68.6,40.6,30.22,SSE,165,8.0,11.0,36,0.00,,,0.00,WeatherCatV1.15B25,2013-05-03 15:35:00,
2013-05-03 11:40:00,69.1,42.4,30.22,SE,126,8.0,9.0,38,0.00,,,0.00,WeatherCatV1.15B25,2013-05-03 15:40:00,
2013-05-03 11:45:00,69.5,42.1,30.22,South,169,11.0,17.0,37,0.00,,,0.00,WeatherCatV1.15B25,2013-05-03 15:45:00,
2013-05-03 11:50:00,69.0,40.9,30.22,SSE,158,11.0,14.0,36,0.00,,,0.00,WeatherCatV1.15B25,2013-05-03 15:50:00,
2013-05-03 11:55:00,69.2,41.1,30.22,SSE,162,13.0,13.0,36,0.00,,,0.00,WeatherCatV1.15B25,2013-05-03 15:55:00,
2013-05-03 12:00:00,69.9,43.1,30.21,SSE,160,6.0,7.0,38,0.00,,,0.00,WeatherCatV1.15B25,2013-05-03 16:00:00,
2013-05-03 12:05:00,70.2,44.1,30.21,SE,145,7.0,13.0,39,0.00,,,0.00,WeatherCatV1.15B25,2013-05-03 16:05:00,
2013-05-03 12:10:00,69.8,43.0,30.21,SE,138,6.0,14.0,38,0.00,,,0.00,WeatherCatV1.15B25,2013-05-03 16:10:00,
2013-05-03 12:15:00,69.9,41.0,30.21,SSE,151,8.0,17.0,35,0.00,,,0.00,WeatherCatV1.15B25,2013-05-03 16:15:00,
2013-05-03 12:20:00,70.1,42.6,30.21,SSE,160,9.0,10.0,37,0.00,,,0.00,WeatherCatV1.15B25,2013-05-03 16:20:00,
2013-05-03 12:25:00,70.6,42.3,30.21,SSE,168,9.0,14.0,36,0.00,,,0.00,WeatherCatV1.15B25,2013-05-03 16:25:00,
2013-05-03 12:30:00,70.5,44.3,30.21,ESE,115,13.0,17.0,39,0.00,,,0.00,WeatherCatV1.15B25,2013-05-03 16:30:00,
2013-05-03 12:35:00,70.5,43.0,30.20,SSE,148,13.0,14.0,37,0.00,,,0.00,WeatherCatV1.15B25,2013-05-03 16:35:00,
2013-05-03 12:40:00,70.4,44.2,30.20,SSE,161,6.0,8.0,39,0.00,,,0.00,WeatherCatV1.15B25,2013-05-03 16:40:00,
2013-05-03 12:45:00,70.9,44.0,30.20,SSE,162,8.0,13.0,38,0.00,,,0.00,WeatherCatV1.15B25,2013-05-03 16:45:00,
2013-05-03 12:50:00,71.1,43.5,30.20,South,172,10.0,14.0,37,0.00,,,0.00,WeatherCatV1.15B25,2013-05-03 16:50:00,
2013-05-03 12:55:00,71.2,44.3,30.20,ESE,112,8.0,15.0,38,0.00,,,0.00,WeatherCatV1.15B25,2013-05-03 16:55:00,
2013-05-03 13:00:00,71.5,44.5,30.19,SSE,162,9.0,15.0,38,0.00,,,0.00,WeatherCatV1.15B25,2013-05-03 17:00:00,
2013-05-03 13:05:00,71.8,44.8,30.19,SSE,148,8.0,12.0,38,0.00,,,0.00,WeatherCatV1.15B25,2013-05-03 17:05:00,
2013-05-03 13:10:00,72.1,44.4,30.19,SE,132,9.0,12.0,37,0.00,,,0.00,WeatherCatV1.15B25,2013-05-03 17:10:00,
2013-05-03 13:15:00,72.3,45.3,30.19,SSE,150,7.0,9.0,38,0.00,,,0.00,WeatherCatV1.15B25,2013-05-03 17:15:00,
2013-05-03 13:20:00,72.6,45.5,30.19,South,172,10.0,10.0,38,0.00,,,0.00,WeatherCatV1.15B25,2013-05-03 17:20:00,
2013-05-03 13:25:00,73.1,46.0,30.18,SSE,148,5.0,9.0,38,0.00,,,0.00,WeatherCatV1.15B25,2013-05-03 17:25:00,
2013-05-03 13:30:00,73.1,44.5,30.18,South,173,9.0,14.0,36,0.00,,,0.00,WeatherCatV1.15B25,2013-05-03 17:30:00,
2013-05-03 13:35:00,72.8,43.5,30.18,SSE,158,10.0,16.0,35,0.00,,,0.00,WeatherCatV1.15B25,2013-05-03 17:35:00,
2013-05-03 13:40:00,73.0,43.0,30.18,SSW,200,6.0,10.0,34,0.00,,,0.00,WeatherCatV1.15B25,2013-05-03 17:40:00,
2013-05-03 13:45:00,73.4,44.8,30.18,SE,127,3.0,7.0,36,0.00,,,0.00,WeatherCatV1.15B25,2013-05-03 17:45:00,
2013-05-03 13:50:00,73.4,42.5,30.18,SSE,150,14.0,14.0,33,0.00,,,0.00,WeatherCatV1.15B25,2013-05-03 17:50:00,
2013-05-03 13:55:00,73.5,43.4,30.18,SSW,194,8.0,12.0,34,0.00,,,0.00,WeatherCatV1.15B25,2013-05-03 17:55:00,
2013-05-03 14:00:00,73.5,43.4,30.17,SSE,158,6.0,18.0,34,0.00,,,0.00,WeatherCatV1.15B25,2013-05-03 18:00:00,
2013-05-03 14:05:00,73.3,43.2,30.17,SSE,159,8.0,10.0,34,0.00,,,0.00,WeatherCatV1.15B25,2013-05-03 18:05:00,
2013-05-03 14:10:00,73.6,42.7,30.17,SSE,167,7.0,8.0,33,0.00,,,0.00,WeatherCatV1.15B25,2013-05-03 18:10:00,
2013-05-03 14:15:00,74.1,43.9,30.17,SSE,155,3.0,11.0,34,0.00,,,0.00,WeatherCatV1.15B25,2013-05-03 18:15:00,
2013-05-03 14:20:00,74.2,44.0,30.17,South,173,6.0,12.0,34,0.00,,,0.00,WeatherCatV1.15B25,2013-05-03 18:20:00,
2013-05-03 14:25:00,74.2,42.4,30.17,SSE,163,11.0,13.0,32,0.00,,,0.00,WeatherCatV1.15B25,2013-05-03 18:25:00,
2013-05-03 14:30:00,74.6,44.4,30.16,SSE,151,5.0,6.0,34,0.00,,,0.00,WeatherCatV1.15B25,2013-05-03 18:30:00,
2013-05-03 14:35:00,75.3,42.6,30.16,SSE,151,3.0,8.0,31,0.00,,,0.00,WeatherCatV1.15B25,2013-05-03 18:35:00,
2013-05-03 14:40:00,75.0,42.3,30.16,South,181,2.0,18.0,31,0.00,,,0.00,WeatherCatV1.15B25,2013-05-03 18:40:00,
2013-05-03 14:45:00,75.0,42.3,30.16,SSE,158,9.0,12.0,31,0.00,,,0.00,WeatherCatV1.15B25,2013-05-03 18:45:00,
2013-05-03 14:50:00,74.8,41.3,30.16,SSE,155,9.0,14.0,30,0.00,,,0.00,WeatherCatV1.15B25,2013-05-03 18:50:00,
2013-05-03 14:55:00,74.9,43.0,30.16,SSW,193,12.0,14.0,32,0.00,,,0.00,WeatherCatV1.15B25,2013-05-03 18:55:00,
2013-05-03 15:00:00,74.8,41.3,30.16,South,169,10.0,16.0,30,0.00,,,0.00,WeatherCatV1.15B25,2013-05-03 19:00:00,
2013-05-03 15:05:00,74.6,41.1,30.15,SE,146,10.0,13.0,30,0.00,,,0.00,WeatherCatV1.15B25,2013-05-03 19:05:00,
2013-05-03 15:10:00,74.7,41.2,30.16,SSE,153,11.0,13.0,30,0.00,,,0.00,WeatherCatV1.15B25,2013-05-03 19:10:00,
2013-05-03 15:15:00,74.9,43.8,30.15,South,181,5.0,10.0,33,0.00,,,0.00,WeatherCatV1.15B25,2013-05-03 19:15:00,
2013-05-03 15:20:00,75.3,44.2,30.15,SE,125,8.0,12.0,33,0.00,,,0.00,WeatherCatV1.15B25,2013-05-03 19:20:00,
2013-05-03 15:25:00,75.0,42.3,30.15,SE,142,10.0,10.0,31,0.00,,,0.00,WeatherCatV1.15B25,2013-05-03 19:25:00,
2013-05-03 15:30:00,75.1,44.0,30.15,SSE,162,8.0,10.0,33,0.00,,,0.00,WeatherCatV1.15B25,2013-05-03 19:30:00,
2013-05-03 15:35:00,75.4,45.1,30.15,SSE,155,7.0,11.0,34,0.00,,,0.00,WeatherCatV1.15B25,2013-05-03 19:35:00,
2013-05-03 15:40:00,75.5,41.0,30.15,South,190,8.0,18.0,29,0.00,,,0.00,WeatherCatV1.15B25,2013-05-03 19:40:00,
2013-05-03 15:45:00,75.0,42.3,30.15,SSE,156,11.0,12.0,31,0.00,,,0.00,WeatherCatV1.15B25,2013-05-03 19:45:00,
2013-05-03 15:50:00,74.6,42.0,30.15,SSE,153,8.0,15.0,31,0.00,,,0.00,WeatherCatV1.15B25,2013-05-03 19:50:00,
2013-05-03 15:55:00,74.8,40.4,30.15,SE,142,14.0,19.0,29,0.00,,,0.00,WeatherCatV1.15B25,2013-05-03 19:55:00,
2013-05-03 16:00:00,74.7,42.0,30.15,SSE,161,12.0,15.0,31,0.00,,,0.00,WeatherCatV1.15B25,2013-05-03 20:00:00,
2013-05-03 16:05:00,74.8,41.3,30.14,SE,134,8.0,13.0,30,0.00,,,0.00,WeatherCatV1.15B25,2013-05-03 20:05:00,
2013-05-03 16:10:00,74.8,43.0,30.14,SSE,148,5.0,9.0,32,0.00,,,0.00,WeatherCatV1.15B25,2013-05-03 20:10:00,
2013-05-03 16:15:00,75.0,41.4,30.14,SSE,156,3.0,8.0,30,0.00,,,0.00,WeatherCatV1.15B25,2013-05-03 20:15:00,
2013-05-03 16:20:00,75.6,44.5,30.14,SSE,150,6.0,9.0,33,0.00,,,0.00,WeatherCatV1.15B25,2013-05-03 20:20:00,
2013-05-03 16:25:00,75.7,42.1,30.13,SSE,152,7.0,11.0,30,0.00,,,0.00,WeatherCatV1.15B25,2013-05-03 20:25:00,
2013-05-03 16:30:00,75.4,40.9,30.13,SE,127,8.0,11.0,29,0.00,,,0.00,WeatherCatV1.15B25,2013-05-03 20:30:00,
2013-05-03 16:35:00,75.1,44.0,30.13,ESE,116,9.0,9.0,33,0.00,,,0.00,WeatherCatV1.15B25,2013-05-03 20:35:00,
2013-05-03 16:40:00,74.9,41.4,30.14,ESE,106,15.0,16.0,30,0.00,,,0.00,WeatherCatV1.15B25,2013-05-03 20:40:00,
2013-05-03 16:45:00,74.9,41.4,30.13,SSE,151,5.0,12.0,30,0.00,,,0.00,WeatherCatV1.15B25,2013-05-03 20:45:00,
2013-05-03 16:50:00,74.8,43.8,30.14,SSE,162,6.0,15.0,33,0.00,,,0.00,WeatherCatV1.15B25,2013-05-03 20:50:00,
2013-05-03 16:55:00,74.6,41.1,30.13,SSW,200,7.0,10.0,30,0.00,,,0.00,WeatherCatV1.15B25,2013-05-03 20:55:00,
2013-05-03 17:00:00,74.9,40.5,30.13,South,173,8.0,12.0,29,0.00,,,0.00,WeatherCatV1.15B25,2013-05-03 21:00:00,
2013-05-03 17:05:00,74.9,42.2,30.13,SE,141,5.0,8.0,31,0.00,,,0.00,WeatherCatV1.15B25,2013-05-03 21:05:00,
2013-05-03 17:10:00,74.8,41.3,30.13,SSE,153,6.0,13.0,30,0.00,,,0.00,WeatherCatV1.15B25,2013-05-03 21:10:00,
2013-05-03 17:15:00,74.9,41.4,30.13,South,169,9.0,15.0,30,0.00,,,0.00,WeatherCatV1.15B25,2013-05-03 21:15:00,
2013-05-03 17:20:00,74.5,41.9,30.13,SSE,163,14.0,15.0,31,0.00,,,0.00,WeatherCatV1.15B25,2013-05-03 21:20:00,
2013-05-03 17:25:00,74.4,41.8,30.13,SSE,162,7.0,11.0,31,0.00,,,0.00,WeatherCatV1.15B25,2013-05-03 21:25:00,
2013-05-03 17:30:00,74.4,41.8,30.13,SSW,210,12.0,15.0,31,0.00,,,0.00,WeatherCatV1.15B25,2013-05-03 21:30:00,
2013-05-03 17:35:00,74.7,41.2,30.13,SSE,163,3.0,12.0,30,0.00,,,0.00,WeatherCatV1.15B25,2013-05-03 21:35:00,
2013-05-03 17:40:00,74.9,42.2,30.13,South,172,9.0,15.0,31,0.00,,,0.00,WeatherCatV1.15B25,2013-05-03 21:40:00,
2013-05-03 17:45:00,74.7,41.2,30.13,SE,138,6.0,14.0,30,0.00,,,0.00,WeatherCatV1.15B25,2013-05-03 21:45:00,
2013-05-03 17:50:00,74.6,42.8,30.13,SSE,148,6.0,10.0,32,0.00,,,0.00,WeatherCatV1.15B25,2013-05-03 21:50:00,
2013-05-03 17:55:00,74.5,41.9,30.13,South,179,8.0,11.0,31,0.00,,,0.00,WeatherCatV1.15B25,2013-05-03 21:55:00,
2013-05-03 18:00:00,74.4,40.9,30.13,SSE,152,7.0,13.0,30,0.00,,,0.00,WeatherCatV1.15B25,2013-05-03 22:00:00,
2013-05-03 18:05:00,74.3,41.7,30.13,SSE,162,12.0,13.0,31,0.00,,,0.00,WeatherCatV1.15B25,2013-05-03 22:05:00,
2013-05-03 18:10:00,74.0,41.4,30.13,South,180,4.0,15.0,31,0.00,,,0.00,WeatherCatV1.15B25,2013-05-03 22:10:00,
2013-05-03 18:15:00,73.8,41.3,30.13,SSE,165,9.0,14.0,31,0.00,,,0.00,WeatherCatV1.15B25,2013-05-03 22:15:00,
2013-05-03 18:20:00,73.6,41.9,30.13,SE,130,6.0,11.0,32,0.00,,,0.00,WeatherCatV1.15B25,2013-05-03 22:20:00,
2013-05-03 18:25:00,73.6,41.9,30.13,SSE,148,7.0,10.0,32,0.00,,,0.00,WeatherCatV1.15B25,2013-05-03 22:25:00,
2013-05-03 18:30:00,73.4,41.7,30.13,SSE,150,8.0,15.0,32,0.00,,,0.00,WeatherCatV1.15B25,2013-05-03 22:30:00,
2013-05-03 18:35:00,73.2,40.7,30.13,SSE,162,4.0,9.0,31,0.00,,,0.00,WeatherCatV1.15B25,2013-05-03 22:35:00,
2013-05-03 18:40:00,73.0,41.4,30.13,SSE,152,10.0,11.0,32,0.00,,,0.00,WeatherCatV1.15B25,2013-05-03 22:40:00,
2013-05-03 18:45:00,73.0,42.2,30.13,SSE,163,4.0,9.0,33,0.00,,,0.00,WeatherCatV1.15B25,2013-05-03 22:45:00,
2013-05-03 18:50:00,72.6,40.2,30.13,SSE,160,7.0,14.0,31,0.00,,,0.00,WeatherCatV1.15B25,2013-05-03 22:50:00,
2013-05-03 18:55:00,72.3,40.8,30.13,South,174,8.0,11.0,32,0.00,,,0.00,WeatherCatV1.15B25,2013-05-03 22:55:00,
2013-05-03 19:00:00,72.1,42.2,30.13,SSE,147,5.0,8.0,34,0.00,,,0.00,WeatherCatV1.15B25,2013-05-03 23:00:00,
2013-05-03 19:05:00,71.8,41.9,30.13,SSE,158,9.0,13.0,34,0.00,,,0.00,WeatherCatV1.15B25,2013-05-03 23:05:00,
2013-05-03 19:10:00,71.7,41.8,30.13,SSE,155,4.0,8.0,34,0.00,,,0.00,WeatherCatV1.15B25,2013-05-03 23:10:00,
2013-05-03 19:15:00,71.4,41.6,30.14,SSE,164,8.0,8.0,34,0.00,,,0.00,WeatherCatV1.15B25,2013-05-03 23:15:00,
2013-05-03 19:20:00,71.2,41.4,30.14,SSE,166,4.0,11.0,34,0.00,,,0.00,WeatherCatV1.15B25,2013-05-03 23:20:00,
2013-05-03 19:25:00,71.0,42.0,30.14,SSW,193,4.0,7.0,35,0.00,,,0.00,WeatherCatV1.15B25,2013-05-03 23:25:00,
2013-05-03 19:30:00,70.7,42.4,30.14,SE,142,6.0,11.0,36,0.00,,,0.00,WeatherCatV1.15B25,2013-05-03 23:30:00,
2013-05-03 19:35:00,70.5,41.5,30.14,SSE,148,7.0,9.0,35,0.00,,,0.00,WeatherCatV1.15B25,2013-05-03 23:35:00,
2013-05-03 19:40:00,70.2,42.0,30.14,SSE,167,6.0,9.0,36,0.00,,,0.00,WeatherCatV1.15B25,2013-05-03 23:40:00,
2013-05-03 19:45:00,69.9,43.1,30.14,SSE,161,4.0,6.0,38,0.00,,,0.00,WeatherCatV1.15B25,2013-05-03 23:45:00,
2013-05-03 19:50:00,69.6,42.9,30.14,SE,141,6.0,6.0,38,0.00,,,0.00,WeatherCatV1.15B25,2013-05-03 23:50:00,
2013-05-03 19:55:00,69.2,42.5,30.14,SSE,162,4.0,7.0,38,0.00,,,0.00,WeatherCatV1.15B25,2013-05-03 23:55:00,
2013-05-03 20:00:00,68.8,42.1,30.14,South,179,8.0,8.0,38,0.00,,,0.00,WeatherCatV1.15B25,2013-05-04 00:00:00,
2013-05-03 20:06:00,68.7,42.7,30.14,SSE,162,4.0,7.0,39,0.00,,,0.00,WeatherCatV1.15B25,2013-05-04 00:06:00,
2013-05-03 20:11:00,68.3,41.7,30.14,South,186,5.0,8.0,38,0.00,,,0.00,WeatherCatV1.15B25,2013-05-04 00:11:00,
2013-05-03 20:17:00,67.6,42.4,30.14,SSE,155,4.0,5.0,40,0.00,,,0.00,WeatherCatV1.15B25,2013-05-04 00:17:00,
2013-05-03 20:22:00,67.4,42.2,30.15,SE,141,6.0,6.0,40,0.00,,,0.00,WeatherCatV1.15B25,2013-05-04 00:22:00,
2013-05-03 20:27:00,67.2,42.7,30.15,SSE,160,4.0,5.0,41,0.00,,,0.00,WeatherCatV1.15B25,2013-05-04 00:27:00,
2013-05-03 20:32:00,67.0,41.9,30.15,SSE,153,5.0,6.0,40,0.00,,,0.00,WeatherCatV1.15B25,2013-05-04 00:32:00,
2013-05-03 20:37:00,66.7,42.9,30.15,SSE,153,3.0,4.0,42,0.00,,,0.00,WeatherCatV1.15B25,2013-05-04 00:37:00,
2013-05-03 20:42:00,66.2,42.4,30.15,SSE,159,3.0,4.0,42,0.00,,,0.00,WeatherCatV1.15B25,2013-05-04 00:42:00,
2013-05-03 20:47:00,65.8,42.7,30.15,South,172,2.0,4.0,43,0.00,,,0.00,WeatherCatV1.15B25,2013-05-04 00:47:00,
2013-05-03 20:52:00,65.4,42.9,30.16,SSE,149,4.0,4.0,44,0.00,,,0.00,WeatherCatV1.15B25,2013-05-04 00:52:00,
2013-05-03 20:57:00,65.0,42.5,30.16,SSE,155,3.0,4.0,44,0.00,,,0.00,WeatherCatV1.15B25,2013-05-04 00:57:00,
2013-05-03 21:02:00,64.8,43.0,30.16,SSE,160,4.0,5.0,45,0.00,,,0.00,WeatherCatV1.15B25,2013-05-04 01:02:00,
2013-05-03 21:07:00,64.5,42.7,30.16,South,169,2.0,3.0,45,0.00,,,0.00,WeatherCatV1.15B25,2013-05-04 01:07:00,
2013-05-03 21:12:00,64.4,42.6,30.16,SE,144,3.0,3.0,45,0.00,,,0.00,WeatherCatV1.15B25,2013-05-04 01:12:00,
2013-05-03 21:17:00,64.3,43.1,30.17,SSE,167,2.0,6.0,46,0.00,,,0.00,WeatherCatV1.15B25,2013-05-04 01:17:00,
2013-05-03 21:22:00,64.1,42.9,30.17,SSE,153,2.0,3.0,46,0.00,,,0.00,WeatherCatV1.15B25,2013-05-04 01:22:00,
2013-05-03 21:27:00,63.7,43.1,30.17,SSE,155,3.0,5.0,47,0.00,,,0.00,WeatherCatV1.15B25,2013-05-04 01:27:00,
2013-05-03 21:32:00,63.7,43.1,30.17,SE,146,3.0,4.0,47,0.00,,,0.00,WeatherCatV1.15B25,2013-05-04 01:32:00,
2013-05-03 21:37:00,63.5,42.9,30.17,SE,143,3.0,7.0,47,0.00,,,0.00,WeatherCatV1.15B25,2013-05-04 01:37:00,
2013-05-03 21:42:00,63.5,42.9,30.17,SSE,167,5.0,8.0,47,0.00,,,0.00,WeatherCatV1.15B25,2013-05-04 01:42:00,
2013-05-03 21:47:00,63.6,43.0,30.17,SSE,152,4.0,6.0,47,0.00,,,0.00,WeatherCatV1.15B25,2013-05-04 01:47:00,
2013-05-03 21:52:00,63.5,42.9,30.17,SE,137,4.0,5.0,47,0.00,,,0.00,WeatherCatV1.15B25,2013-05-04 01:52:00,
2013-05-03 21:57:00,63.3,43.3,30.17,SSE,148,2.0,4.0,48,0.00,,,0.00,WeatherCatV1.15B25,2013-05-04 01:57:00,
2013-05-03 22:02:00,62.7,42.7,30.17,SE,139,2.0,4.0,48,0.00,,,0.00,WeatherCatV1.15B25,2013-05-04 02:02:00,
2013-05-03 22:07:00,62.2,42.8,30.17,SSE,152,4.0,5.0,49,0.00,,,0.00,WeatherCatV1.15B25,2013-05-04 02:07:00,
2013-05-03 22:12:00,62.2,42.8,30.17,SSE,150,4.0,5.0,49,0.00,,,0.00,WeatherCatV1.15B25,2013-05-04 02:12:00,
2013-05-03 22:17:00,62.3,42.9,30.17,SE,144,4.0,7.0,49,0.00,,,0.00,WeatherCatV1.15B25,2013-05-04 02:17:00,
2013-05-03 22:22:00,62.6,43.2,30.17,SSE,152,6.0,7.0,49,0.00,,,0.00,WeatherCatV1.15B25,2013-05-04 02:22:00,
2013-05-03 22:27:00,62.6,43.2,30.17,SSE,150,4.0,7.0,49,0.00,,,0.00,WeatherCatV1.15B25,2013-05-04 02:27:00,
2013-05-03 22:32:00,62.6,43.2,30.17,SSE,159,4.0,7.0,49,0.00,,,0.00,WeatherCatV1.15B25,2013-05-04 02:32:00,
2013-05-03 22:37:00,62.2,42.8,30.17,SE,141,3.0,4.0,49,0.00,,,0.00,WeatherCatV1.15B25,2013-05-04 02:37:00,
2013-05-03 22:42:00,61.8,43.0,30.17,SE,136,4.0,7.0,50,0.00,,,0.00,WeatherCatV1.15B25,2013-05-04 02:42:00,
2013-05-03 22:47:00,62.0,42.6,30.18,SSE,158,3.0,7.0,49,0.00,,,0.00,WeatherCatV1.15B25,2013-05-04 02:47:00,
2013-05-03 22:52:00,62.2,42.8,30.18,SSE,149,5.0,6.0,49,0.00,,,0.00,WeatherCatV1.15B25,2013-05-04 02:52:00,
2013-05-03 22:57:00,61.9,43.1,30.17,SE,145,4.0,5.0,50,0.00,,,0.00,WeatherCatV1.15B25,2013-05-04 02:57:00,
2013-05-03 23:02:00,61.6,43.3,30.17,SE,144,3.0,6.0,51,0.00,,,0.00,WeatherCatV1.15B25,2013-05-04 03:02:00,
2013-05-03 23:07:00,61.6,43.3,30.17,SE,127,4.0,6.0,51,0.00,,,0.00,WeatherCatV1.15B25,2013-05-04 03:07:00,
2013-05-03 23:12:00,61.5,42.7,30.17,SSE,152,6.0,11.0,50,0.00,,,0.00,WeatherCatV1.15B25,2013-05-04 03:12:00,
2013-05-03 23:17:00,61.6,42.8,30.17,SSE,150,5.0,7.0,50,0.00,,,0.00,WeatherCatV1.15B25,2013-05-04 03:17:00,
2013-05-03 23:22:00,60.9,43.2,30.17,SE,143,2.0,2.0,52,0.00,,,0.00,WeatherCatV1.15B25,2013-05-04 03:22:00,
2013-05-03 23:27:00,60.0,43.3,30.17,SSE,153,2.0,3.0,54,0.00,,,0.00,WeatherCatV1.15B25,2013-05-04 03:27:00,
2013-05-03 23:32:00,59.9,43.2,30.18,SSE,150,5.0,5.0,54,0.00,,,0.00,WeatherCatV1.15B25,2013-05-04 03:32:00,
2013-05-03 23:37:00,59.9,43.2,30.18,SE,145,2.0,4.0,54,0.00,,,0.00,WeatherCatV1.15B25,2013-05-04 03:37:00,
2013-05-03 23:42:00,59.1,42.9,30.18,SE,124,2.0,4.0,55,0.00,,,0.00,WeatherCatV1.15B25,2013-05-04 03:42:00,
2013-05-03 23:47:00,58.8,43.1,30.18,SE,141,4.0,7.0,56,0.00,,,0.00,WeatherCatV1.15B25,2013-05-04 03:47:00,
2013-05-03 23:52:00,59.1,42.9,30.18,SE,145,4.0,6.0,55,0.00,,,0.00,WeatherCatV1.15B25,2013-05-04 03:52:00,
2013-05-03 23:57:00,59.4,43.2,30.18,SE,139,5.0,5.0,55,0.00,,,0.00,WeatherCatV1.15B25,2013-05-04 03:57:00,